Location: Ladrillo (historical)
(32.8195°N, 117.2231°W)
Time: 03:06:11
(UTC+00:00)

ATLAS 3B R/B - Pass Details

Date: 29 October 2020
Orbit: 1014 x 1181 km, 63.8° (Epoch: 23 November)

Event Time Altitude Azimuth Distance (km) Brightness Sun altitude
Exits shadow 12:44:57 25° 289° (WNW) 1,908 3.4 -17.3°
Maximum altitude 12:46:23 27° 310° (NW) 1,827 3.5 -17.0°
Drops below altitude 10° 12:51:55 10° 7° (N) 2,823 4.9 -15.8°
Sets 12:55:01 0° 20° (NNE) 3,795 5.8 -15.2°
